GW2195 Weather Reports


Display with metric or nautical units.
time (UTC)temp
F
wind
direction
speed
MPH
gust
MPH
rain 1hr
in
rain 24hr
in
rain mn
in
humidity
%
barometer
mb
20260504050534 45 15 0.0 2.0 0.00 0.08 0.00 92 1013.3
20260504050002 45 10 0.0 3.0 0.00 0.08 0.00 92 1013.3
20260504045552 45 13 1.0 3.0 0.00 0.08 0.00 92 1013.4
20260504045040 45 23 0.0 0.0 0.00 0.08 0.00 92 1013.3
20260504044601 45 37 0.0 1.0 0.00 0.08 0.00 92 1013.3
20260504044049 45 19 0.0 2.0 0.00 0.08 0.00 92 1013.3
20260504043538 45 15 0.0 2.0 0.00 0.08 0.00 92 1013.2
20260504043104 45 26 0.0 2.0 0.00 0.08 0.00 92 1013.2
20260504042544 45 32 0.0 2.0 0.00 0.08 0.00 92 1013.1
20260504042033 45 19 0.0 3.0 0.00 0.08 0.00 92 1013.2
20260504041557 45 21 1.0 3.0 0.00 0.08 0.00 91 1013.2
20260504041042 45 22 0.0 2.0 0.00 0.08 0.00 91 1013.2
20260504040532 45 28 0.0 2.0 0.00 0.08 0.00 91 1013.2
20260504040054 46 33 1.0 2.0 0.00 0.08 0.00 90 1013.3
20260504035535 46 28 0.0 3.0 0.00 0.08 0.00 90 1013.1
20260504035017 46 33 1.0 4.0 0.00 0.08 0.00 90 1013.2
20260504034539 46 32 2.0 4.0 0.00 0.08 0.00 90 1013.2
20260504034020 46 37 1.0 2.0 0.00 0.08 0.00 89 1013.2
20260504033508 47 34 0.0 2.0 0.00 0.08 0.00 89 1013.2
20260504033023 47 29 1.0 2.0 0.00 0.08 0.00 89 1013.2
20260504032505 47 43 0.0 1.0 0.00 0.08 0.00 89 1013.3
20260504032055 47 35 0.0 1.0 0.00 0.08 0.00 88 1013.2
20260504031521 48 5 0.0 1.0 0.00 0.08 0.00 89 1013.3
20260504031008 48 13 0.0 2.0 0.00 0.08 0.00 88 1013.2
20260504030556 48 22 0.0 2.0 0.00 0.08 0.00 88 1013.2
20260504030020 48 5 0.0 1.0 0.00 0.08 0.00 89 1013.2
20260504025506 48 13 0.0 2.0 0.00 0.08 0.00 89 1013.2
20260504025056 48 13 0.0 2.0 0.00 0.08 0.00 88 1013.2
20260504024513 48 27 0.0 2.0 0.00 0.08 0.00 88 1013.3
20260504024106 49 28 0.0 2.0 0.00 0.08 0.00 88 1013.3
20260504023547 49 33 0.0 0.0 0.00 0.08 0.00 88 1013.3
20260504023009 49 33 0.0 0.0 0.00 0.08 0.00 88 1013.4
20260504022555 49 33 0.0 0.0 0.00 0.08 0.00 88 1013.3
20260504022040 49 39 0.0 0.0 0.00 0.08 0.00 88 1013.3
20260504021505 49 26 0.0 2.0 0.00 0.08 0.00 88 1013.2
20260504021053 49 26 0.0 2.0 0.00 0.08 0.00 87 1013.3
20260504020540 49 33 0.0 2.0 0.00 0.08 0.00 87 1013.3
20260504020004 49 23 0.0 0.0 0.00 0.09 0.00 87 1013.3
20260504015550 49 23 0.0 2.0 0.00 0.09 0.00 87 1013.4
20260504015038 49 23 0.0 2.0 0.00 0.09 0.00 86 1013.4
20260504014605 49 15 0.0 2.0 0.00 0.09 0.00 87 1013.2
20260504014043 50 5 0.0 1.0 0.00 0.09 0.00 86 1013.4
20260504013533 50 355 0.0 1.0 0.00 0.09 0.00 86 1013.3
20260504013051 50 355 0.0 1.0 0.00 0.09 0.00 86 1013.4
20260504012537 50 355 0.0 1.0 0.00 0.09 0.00 86 1013.4
20260504012024 50 349 0.0 1.0 0.00 0.09 0.00 84 1013.4
20260504011546 50 292 0.0 3.0 0.00 0.09 0.00 84 1013.4
20260504011028 50 292 0.0 3.0 0.00 0.09 0.00 84 1013.2
20260504010517 50 315 1.0 4.0 0.00 0.09 0.00 84 1013.1
20260504010032 50 346 1.0 4.0 0.00 0.09 0.00 85 1013.3
20260504005519 50 344 1.0 2.0 0.00 0.09 0.00 85 1013.5
20260504005007 50 15 0.0 3.0 0.00 0.09 0.00 86 1013.5
20260504004536 50 360 0.0 3.0 0.00 0.09 0.00 84 1013.5
20260504004019 50 33 0.0 2.0 0.00 0.09 0.00 85 1013.5
20260504003506 50 33 0.0 3.0 0.00 0.09 0.00 85 1013.5
20260504003023 50 22 1.0 3.0 0.00 0.09 0.00 85 1013.6
20260504002510 50 346 1.0 3.0 0.00 0.09 0.00 86 1013.5
20260504002100 51 336 0.0 2.0 0.00 0.09 0.00 86 1013.5
20260504001529 51 331 0.0 3.0 0.00 0.09 0.00 86 1013.6
20260504001010 51 355 0.0 3.0 0.00 0.09 0.00 86 1013.6
20260504000552 51 355 0.0 3.0 0.00 0.09 0.00 86 1013.7
20260504000009 51 300 0.0 1.0 0.00 0.09 0.00 86 1013.8
20260503235551 51 300 0.0 1.0 0.00 0.09 0.00 85 1013.7
20260503235034 51 311 0.0 3.0 0.00 0.09 0.00 85 1013.6
20260503234551 51 338 1.0 3.0 0.00 0.09 0.00 85 1013.7
20260503234040 51 340 0.0 2.0 0.00 0.09 0.00 85 1013.7
20260503233516 52 328 0.0 2.0 0.00 0.09 0.00 85 1013.7
20260503233034 52 5 0.0 2.0 0.00 0.09 0.00 85 1013.8
20260503232521 52 5 0.0 2.0 0.00 0.09 0.00 85 1013.8
20260503232008 52 271 0.0 2.0 0.00 0.09 0.00 86 1013.8
20260503231529 52 230 0.0 2.0 0.00 0.09 0.00 86 1013.8
20260503231016 52 241 0.0 2.0 0.00 0.09 0.00 86 1013.8
20260503230600 52 263 0.0 4.0 0.00 0.09 0.00 87 1013.9
20260503230011 52 167 0.0 3.0 0.00 0.14 0.09 87 1013.9
20260503225601 52 355 0.0 3.0 0.00 0.14 0.09 87 1013.9
20260503225046 52 19 0.0 4.0 0.00 0.14 0.09 87 1013.9
20260503224605 52 331 0.0 5.0 0.00 0.14 0.09 87 1013.8
20260503224047 52 355 1.0 5.0 0.00 0.14 0.09 87 1013.8
20260503223530 53 360 2.0 5.0 0.00 0.14 0.09 87 1013.9
20260503223046 53 15 0.0 2.0 0.00 0.14 0.09 87 1013.8
20260503222531 53 32 0.0 3.0 0.00 0.14 0.09 87 1013.8
20260503222014 53 28 0.0 3.0 0.00 0.14 0.09 88 1013.7
20260503221534 53 323 0.0 3.0 0.00 0.14 0.09 88 1013.6
20260503221017 53 348 0.0 3.0 0.00 0.14 0.09 89 1013.6
20260503220605 53 355 0.0 3.0 0.00 0.14 0.09 89 1013.7
20260503220026 53 263 0.0 2.0 0.00 0.14 0.09 90 1013.6
20260503215514 53 252 0.0 5.0 0.00 0.14 0.09 90 1013.6
20260503215101 53 248 0.0 5.0 0.00 0.14 0.09 90 1013.6
20260503214535 53 278 0.0 0.0 0.00 0.14 0.09 91 1013.5
20260503214009 53 180 0.0 0.0 0.00 0.14 0.09 93 1013.6
20260503213558 53 123 0.0 0.0 0.00 0.14 0.09 92 1013.4
20260503213009 53 64 0.0 0.0 0.00 0.14 0.09 93 1013.3
20260503212559 53 64 0.0 0.0 0.00 0.14 0.09 92 1013.3
20260503212046 53 64 0.0 0.0 0.01 0.14 0.09 92 1013.2
20260503211505 53 64 0.0 0.0 0.02 0.14 0.09 92 1013.2
20260503211054 53 64 0.0 0.0 0.02 0.14 0.09 92 1013.2
20260503210542 54 64 0.0 0.0 0.02 0.14 0.09 92 1013.1
20260503210009 54 64 0.0 0.0 0.02 0.14 0.09 91 1013.0
20260503205601 54 64 0.0 0.0 0.02 0.14 0.09 92 1013.0
20260503205048 54 64 0.0 0.0 0.02 0.14 0.09 91 1013.0
20260503204513 54 64 0.0 0.0 0.02 0.14 0.09 91 1012.9
20260503204002 54 64 0.0 0.0 0.02 0.14 0.09 91 1012.8
20260503203552 54 64 0.0 0.0 0.02 0.14 0.09 91 1012.8
20260503203008 54 64 0.0 0.0 0.02 0.14 0.09 90 1012.8
20260503202556 54 64 0.0 0.0 0.02 0.14 0.09 90 1012.8
20260503202043 55 78 0.0 0.0 0.02 0.13 0.09 90 1012.7
20260503201502 55 31 0.0 0.0 0.01 0.13 0.08 89 1012.6
20260503201051 55 31 0.0 0.0 0.01 0.13 0.08 89 1012.5
20260503200539 55 31 0.0 0.0 0.01 0.13 0.08 88 1012.5
20260503200115 55 133 0.0 0.0 0.01 0.13 0.08 87 1012.5
20260503195547 55 133 0.0 0.0 0.01 0.13 0.08 87 1012.5
20260503195034 55 42 0.0 0.0 0.01 0.13 0.08 87 1012.4
20260503194603 55 15 0.0 0.0 0.01 0.13 0.08 86 1012.3
20260503194043 56 15 0.0 0.0 0.01 0.13 0.08 86 1012.2
20260503193529 56 15 0.0 0.0 0.01 0.13 0.08 85 1012.2
20260503193058 56 342 0.0 0.0 0.00 0.12 0.07 84 1012.2
20260503192541 57 32 0.0 0.0 0.00 0.12 0.07 83 1012.1
20260503192026 57 36 0.0 1.0 0.00 0.12 0.07 83 1012.1
20260503191549 57 360 0.0 1.0 0.00 0.12 0.07 79 1012.1
20260503191034 57 266 0.0 1.0 0.00 0.12 0.07 79 1012.1
20260503190520 57 266 0.0 1.0 0.00 0.12 0.07 79 1012.1
20260503190047 57 266 0.0 1.0 0.00 0.12 0.07 79 1012.0
20260503185529 57 266 0.0 1.0 0.00 0.12 0.07 79 1012.0
20260503185019 58 244 0.0 1.0 0.00 0.12 0.07 78 1012.0
20260503184546 58 244 0.0 1.0 0.00 0.12 0.07 78 1012.0
20260503184027 58 273 0.0 3.0 0.00 0.12 0.07 78 1012.0
20260503183512 58 251 0.0 3.0 0.00 0.12 0.07 77 1012.0
20260503183044 58 247 0.0 2.0 0.00 0.12 0.07 77 1012.0
20260503182533 58 213 0.0 2.0 0.00 0.12 0.07 77 1012.1
20260503182021 58 233 0.0 3.0 0.00 0.12 0.07 77 1012.0
20260503181555 58 234 0.0 3.0 0.00 0.12 0.07 77 1012.0
20260503181027 58 338 0.0 2.0 0.00 0.12 0.07 77 1012.0
20260503180515 58 202 0.0 2.0 0.00 0.12 0.07 77 1012.0
20260503180047 58 331 0.0 3.0 0.00 0.12 0.07 77 1012.1
20260503175515 58 5 0.0 3.0 0.00 0.12 0.07 76 1012.0
20260503175003 58 241 0.0 3.0 0.00 0.12 0.07 77 1012.1
20260503174525 58 229 1.0 3.0 0.00 0.12 0.07 77 1012.1
20260503174003 58 215 0.0 2.0 0.00 0.12 0.07 78 1012.0
20260503173548 58 229 0.0 4.0 0.00 0.12 0.07 78 1012.0
20260503173015 58 184 0.0 4.0 0.00 0.12 0.07 77 1012.0
20260503172601 58 264 1.0 3.0 0.00 0.12 0.07 78 1012.0
20260503172046 57 331 0.0 2.0 0.00 0.12 0.07 78 1011.9
20260503171513 57 201 0.0 3.0 0.00 0.12 0.07 79 1011.9
20260503171059 57 350 0.0 3.0 0.00 0.12 0.07 79 1011.9
20260503170542 57 292 0.0 2.0 0.00 0.12 0.07 79 1011.9
20260503150514 57 347 4.0 8.0 0.06 0.12 0.07 81 1011.8
20260503131008 65 252 3.0 11.0 0.00 0.13 0.02 55 1011.8
20260503130603 66 175 7.0 11.0 0.00 0.13 0.02 52 1011.8
20260503110512 61 201 4.0 10.0 0.00 0.23 0.02 62 1012.9
20260503100109 59 263 2.0 9.0 0.00 0.23 0.02 73 1012.9
20260503081541 55 209 0.0 4.0 0.00 0.23 0.02 88 1013.1
20260503081022 55 178 1.0 4.0 0.00 0.23 0.02 88 1013.0
20260503080510 54 241 0.0 1.0 0.00 0.23 0.02 90 1013.1